Regional Weather Roundup
Issued by NWS

Home | Current Version | Previous Version | Text Only | Print | Product List | Glossary On
Versions: 1 2 3 4 5 6 7 8 9 10 11 12 13 14 15 16 17 18 19 20 21 22 23 24 25 26 27 28 29 30 31 32 33 34 35 36 37 38 39 40 41 42 43 44 45 46 47 48 49 50
000
ASUS43 KOAX 201110
RWRNE

WEATHER ROUNDUP FOR NEBRASKA
NATIONAL WEATHER SERVICE OMAHA NE
600 AM CDT FRI OCT 20 2017

NOTES: SATELLITE DATA IS BEING USED TO AUGMENT CLOUD COVER ABOVE
       12000 FEET.
       "FAIR" INDICATES FEW OR NO CLOUDS BELOW 12,000 FEET WITH NO
       SIGNIFICANT WEATHER AND/OR OBSTRUCTIONS TO VISIBILITY.


NEZ001>004-019>022-054>056-201200-
NEBRASKA PANHANDLE

CITY           SKY/WX    TMP DP  RH WIND       PRES   REMARKS
SCOTTSBLUFF    PTCLDY    42  32  67 E7        29.72S
ALLIANCE       CLEAR     46  43  89 S13       29.72S
CHADRON        CLEAR     49  34  56 CALM      29.65F
GORDON         FAIR      49  44  81 NW6       29.69F
KIMBALL        PTCLDY    41  33  72 W6        29.76S
SIDNEY         MOCLDY    41  38  89 SW3       29.75S
$$

NEZ057>060-069>072-079>082-201200-
SOUTHWEST NEBRASKA

CITY           SKY/WX    TMP DP  RH WIND       PRES   REMARKS
NORTH PLATTE   MOCLDY    57  47  69 S14       29.77F
IMPERIAL       PTCLDY    55  46  71 S17       29.77S
LEXINGTON      MOCLDY    57  47  67 S14G21    29.83S
MCCOOK         MOCLDY    57  47  69 SW6       29.80F
OGALLALA       MOCLDY    50  44  80 CALM      29.77S
$$

NEZ005>010-023>029-035>040-094-201200-
NORTH CENTRAL NEBRASKA

CITY           SKY/WX    TMP DP  RH WIND       PRES   REMARKS
VALENTINE      CLEAR     57  44  62 S10       29.71F
AINSWORTH      CLEAR     54  46  74 S14       29.74F
BROKEN BOW     PTCLDY    54  46  74 S5        29.80F
O`NEILL        CLEAR     56  48  75 S14       29.79F
ORD            PTCLDY    55  47  74 S8        29.81F
THEDFORD       PTCLDY    55  46  71 S8        29.76F
$$

NEZ041-046>049-061>064-073>077-083>087-201200-
SOUTH CENTRAL NEBRASKA

CITY           SKY/WX    TMP DP  RH WIND       PRES   REMARKS
GRAND ISLAND   FAIR      55  50  83 S14       29.87F
AURORA         FAIR      56  50  80 S15G21    29.89S
HASTINGS       FAIR      57  49  74 S13G22    29.89F
HEBRON         FAIR      58  52  79 S9        29.93F
HOLDREGE       FAIR      56  48  74 S13       29.85S
KEARNEY        FAIR      57  48  72 S16       29.86S
YORK             N/A     55  52  88 S13G20    29.91S
$$

NEZ011>018-030>034-042>045-201200-
NORTHEAST NEBRASKA

CITY           SKY/WX    TMP DP  RH WIND       PRES   REMARKS
NORFOLK        FAIR      57  49  74 S17       29.86S
ALBION         FAIR      55  49  78 SE9       29.86S
BLAIR          FAIR      57  52  81 S12       29.95S
COLUMBUS       FAIR      57  50  77 S16G22    29.90S
FREMONT        FAIR      58  50  75 S10       29.93S
TEKAMAH        FAIR      52  48  86 SE6       29.93S
WAYNE          FAIR      55  51  85 S8        29.88S
$$

NEZ050>053-065>068-078-088>093-201200-
SOUTHEAST NEBRASKA

CITY           SKY/WX    TMP DP  RH WIND       PRES   REMARKS
LINCOLN        FAIR      56  51  84 S10       29.94F
OMAHA EPPLEY   MOCLDY    57  51  80 S12       29.97S
BEATRICE       FAIR      56  52  89 SE9       29.97S
FALLS CITY     FAIR      57  52  83 S10       30.01S
NEBRASKA CITY  FAIR      52  52 100 S7        29.99S
PLATTSMOUTH    FAIR      55  53  93 SE9       29.98S
$$

NEZ044-045-051>053-067-201200-
OMAHA AREA

CITY           SKY/WX    TMP DP  RH WIND       PRES   REMARKS
OMAHA EPPLEY   MOCLDY    57  51  80 S12       29.97S
BLAIR          FAIR      57  52  81 S12       29.95S
FREMONT        FAIR      58  50  75 S10       29.93S
MILLARD        FAIR      57  53  85 SE7       29.97S
OFFUTT AFB     FAIR      55  51  88 SE9       29.97S
PLATTSMOUTH    FAIR      55  53  93 SE9       29.98S
WAHOO          FAIR      55  50  83 SE7       29.94S
$$



USA.gov is the U.S. government's official web portal to all federal, state and local government web resources and services.